Flag for U.S.A. Weather past 2 weeks in Tampa, Florida, U.S.A.

Now
83 °F

Passing clouds.


Feels Like: 89 °F
Forecast: 76 / 91 °F
Wind: No wind

Location: Tampa International Airport

Current Time: Jul 24, 2014 at 2:27:33 AM

Latest Report: Jul 24, 2014 at 1:53 AM


Visibility: 10 mi

Pressure: 30.03 "Hg

Humidity: 74%

Dew point: 74 °F

Location of TampaLocation

Historic Weather in Tampa — Graph

°F

Tampa temperature yesterday

Maximum temperature yesterday: 90 °F (at 4:53 PM)
Minimum temperature yesterday: 78 °F (at 3:53 AM)
Average temperature yesterday: 84 °F

Past Weeks' High & Low Weather Summary

 TemperatureHumidityPressure
High91 °F (Jul 20, 4:53 PM)96% (Jul 17, 1:53 AM)30.16 "Hg (Jul 17, 1:53 AM)
Low73 °F (Jul 16, 10:57 AM)45% (Jul 18, 5:53 PM)29.92 "Hg (Jul 16, 5:53 AM)
Average82 °F74%30.06 "Hg
* Reported Jul 9 12:53 AM — Jul 24 12:53 AM, Tampa, Weather by CustomWeather, © 2014

Note: Actual official high and low records may vary slightly from our data, if they occured in-between our weather recording intervals... More about our weather records

Advertising

Tampa weather history for previous 24 hours

 ConditionsComfort  
Time TempWeatherWind HumidityBarometerVisibility
12:53 AM
Jul 24
83 °FPassing clouds.No wind74%30.04 "Hg10 mi
11:53 PM
Jul 23
83 °FPassing clouds.No wind74%30.03 "Hg10 mi
10:53 PM84 °FPassing clouds.5 mph72%30.03 "Hg10 mi
9:53 PM84 °FPassing clouds.5 mph70%30.03 "Hg10 mi
8:53 PM85 °FPartly sunny.7 mph65%30.02 "Hg10 mi
7:53 PM87 °FPartly sunny.7 mph61%30.01 "Hg10 mi
6:53 PM88 °FPartly sunny.9 mph57%30.01 "Hg10 mi
5:53 PM90 °FPartly sunny.10 mph54%30.01 "Hg10 mi
4:53 PM90 °FPartly sunny.10 mph56%30.02 "Hg10 mi
3:53 PM89 °FPartly sunny.8 mph57%30.05 "Hg10 mi
2:53 PM89 °FPartly sunny.8 mph59%30.06 "Hg10 mi
1:53 PM88 °FScattered clouds.8 mph59%30.07 "Hg10 mi
12:53 PM87 °FScattered clouds.6 mph67%30.09 "Hg10 mi
11:53 AM86 °FScattered clouds.6 mph63%30.09 "Hg10 mi
10:53 AM85 °FScattered clouds.6 mph70%30.09 "Hg10 mi
9:53 AM84 °FScattered clouds.6 mph74%30.09 "Hg10 mi
8:53 AM81 °FScattered clouds.No wind79%30.08 "Hg10 mi
7:53 AM78 °FScattered clouds.5 mph87%30.08 "Hg10 mi
6:53 AM78 °FPassing clouds.3 mph87%30.06 "Hg10 mi
5:53 AM78 °FPassing clouds.No wind87%30.05 "Hg10 mi
4:53 AM78 °FPassing clouds.No wind87%30.04 "Hg10 mi
3:53 AM78 °FPassing clouds.3 mph84%30.04 "Hg10 mi
Weather by CustomWeather, © 2014

See weather overviewHow to use our weather pages